EN

Hourly Weather Siva

Today, 2 March, Tuesday

Time Temperature Precipitation Wind Pressure Humidity
00:00 +14°C° 0 mm 3 mps 762 mmHg 51%
01:00 +13°C° 0 mm 3 mps 762 mmHg 58%
02:00 +12°C° 0 mm 3 mps 762 mmHg 66%
03:00 +12°C° 0 mm 3 mps 762 mmHg 68%
04:00 +11°C° 0 mm 3 mps 762 mmHg 70%
05:00 +11°C° 0 mm 3 mps 762 mmHg 73%
06:00 +11°C° 0 mm 3 mps 762 mmHg 72%
07:00 +13°C° 0 mm 2 mps 763 mmHg 70%
08:00 +13°C° 0 mm 2 mps 763 mmHg 65%
09:00 +15°C° 0 mm 2 mps 763 mmHg 59%
10:00 +16°C° 0 mm 2 mps 763 mmHg 53%
11:00 +19°C° 0 mm 1 mps 764 mmHg 47%
12:00 +19°C° 0 mm 2 mps 763 mmHg 43%
13:00 +20°C° 0 mm 2 mps 762 mmHg 39%
14:00 +21°C° 0 mm 2 mps 762 mmHg 36%
15:00 +21°C° 0 mm 3 mps 762 mmHg 35%
16:00 +21°C° 0 mm 3 mps 761 mmHg 33%
17:00 +21°C° 0 mm 4 mps 761 mmHg 32%
18:00 +20°C° 0 mm 3 mps 762 mmHg 35%
19:00 +18°C° 0 mm 3 mps 762 mmHg 39%
20:00 +17°C° 0 mm 3 mps 762 mmHg 42%
21:00 +17°C° 0 mm 3 mps 762 mmHg 44%
22:00 +17°C° 0 mm 4 mps 763 mmHg 46%
23:00 +15°C° 0 mm 5 mps 763 mmHg 49%

Tomorrow, 3 March, Wednesday

Time Temperature Precipitation Wind Pressure Humidity
00:00 +14°C° 0 mm 4 mps 763 mmHg 53%
01:00 +13°C° 0 mm 3 mps 763 mmHg 58%
02:00 +13°C° 0 mm 2 mps 763 mmHg 62%
03:00 +12°C° 0 mm 2 mps 763 mmHg 66%
04:00 +12°C° 0 mm 2 mps 763 mmHg 69%
05:00 +10°C° 0 mm 2 mps 763 mmHg 72%
06:00 +12°C° 0 mm 2 mps 763 mmHg 71%
07:00 +12°C° 0 mm 2 mps 763 mmHg 69%
08:00 +12°C° 0 mm 2 mps 763 mmHg 68%
09:00 +13°C° 0 mm 3 mps 764 mmHg 61%
10:00 +14°C° 0 mm 5 mps 764 mmHg 53%
11:00 +16°C° 0 mm 6 mps 764 mmHg 46%
12:00 +16°C° 0 mm 6 mps 764 mmHg 40%
13:00 +17°C° 0 mm 7 mps 763 mmHg 34%
14:00 +18°C° 0 mm 7 mps 763 mmHg 28%
15:00 +17°C° 0 mm 7 mps 763 mmHg 29%
16:00 +17°C° 0 mm 7 mps 762 mmHg 30%
17:00 +17°C° 0 mm 6 mps 762 mmHg 31%
18:00 +16°C° 0 mm 5 mps 762 mmHg 36%
19:00 +14°C° 0 mm 5 mps 763 mmHg 41%
20:00 +13°C° 0 mm 4 mps 763 mmHg 46%
21:00 +12°C° 0 mm 4 mps 763 mmHg 49%
22:00 +11°C° 0 mm 3 mps 763 mmHg 52%
23:00 +11°C° 0 mm 3 mps 763 mmHg 55%

Day after tomorrow, 4 March, Thursday

Time Temperature Precipitation Wind Pressure Humidity
00:00 +10°C° 0 mm 3 mps 763 mmHg 60%
01:00 +10°C° 0 mm 3 mps 763 mmHg 65%
02:00 +9°C° 0 mm 3 mps 763 mmHg 70%
03:00 +9°C° 0 mm 2 mps 763 mmHg 71%
04:00 +9°C° 0 mm 2 mps 763 mmHg 72%
05:00 +8°C° 0 mm 2 mps 763 mmHg 73%
06:00 +9°C° 0 mm 2 mps 763 mmHg 71%
07:00 +9°C° 0 mm 2 mps 763 mmHg 69%
08:00 +10°C° 0 mm 2 mps 763 mmHg 66%
09:00 +12°C° 0 mm 2 mps 763 mmHg 61%
10:00 +14°C° 0 mm 2 mps 764 mmHg 56%
11:00 +15°C° 0 mm 1 mps 764 mmHg 51%
12:00 +18°C° 0 mm 1 mps 763 mmHg 46%
13:00 +19°C° 0 mm 1 mps 762 mmHg 40%
14:00 +19°C° 0 mm 2 mps 762 mmHg 35%
15:00 +19°C° 0 mm 2 mps 761 mmHg 34%
16:00 +19°C° 0 mm 2 mps 761 mmHg 33%
17:00 +20°C° 0 mm 2 mps 761 mmHg 31%
18:00 +18°C° 0 mm 2 mps 761 mmHg 36%
19:00 +17°C° 0 mm 2 mps 761 mmHg 40%
20:00 +15°C° 0 mm 2 mps 762 mmHg 44%
21:00 +14°C° 0 mm 2 mps 762 mmHg 47%
22:00 +14°C° 0 mm 1 mps 762 mmHg 49%
23:00 +13°C° 0 mm 1 mps 762 mmHg 52%

5 March, Friday

Time Temperature Precipitation Wind Pressure Humidity
00:00 +12°C° 0 mm 1 mps 762 mmHg 55%
01:00 +11°C° 0 mm 0 mps 762 mmHg 58%
02:00 +10°C° 0 mm 0 mps 762 mmHg 61%
03:00 +10°C° 0 mm 0 mps 761 mmHg 62%
04:00 +11°C° 0 mm 1 mps 761 mmHg 63%
05:00 +10°C° 0 mm 1 mps 761 mmHg 64%
06:00 +11°C° 0 mm 1 mps 761 mmHg 58%
07:00 +13°C° 0 mm 2 mps 762 mmHg 52%
08:00 +13°C° 0 mm 3 mps 762 mmHg 46%
09:00 +16°C° 0 mm 3 mps 762 mmHg 40%
10:00 +18°C° 0 mm 4 mps 762 mmHg 35%
11:00 +19°C° 0 mm 5 mps 762 mmHg 30%
12:00 +21°C° 0 mm 5 mps 762 mmHg 27%
13:00 +22°C° 0 mm 5 mps 761 mmHg 23%
14:00 +23°C° 0 mm 5 mps 760 mmHg 20%
15:00 +23°C° 0 mm 4 mps 760 mmHg 20%
16:00 +23°C° 0 mm 4 mps 760 mmHg 19%
17:00 +23°C° 0 mm 4 mps 759 mmHg 19%
18:00 +22°C° 0 mm 4 mps 760 mmHg 22%
19:00 +20°C° 0 mm 4 mps 760 mmHg 24%
20:00 +18°C° 0 mm 4 mps 760 mmHg 27%
21:00 +18°C° 0 mm 4 mps 760 mmHg 29%
22:00 +17°C° 0 mm 4 mps 761 mmHg 31%
23:00 +15°C° 0 mm 4 mps 761 mmHg 33%

6 March, Saturday

Time Temperature Precipitation Wind Pressure Humidity
00:00 +15°C° 0 mm 4 mps 761 mmHg 33%
01:00 +15°C° 0 mm 5 mps 760 mmHg 32%
02:00 +14°C° 0 mm 5 mps 760 mmHg 32%
03:00 +14°C° 0 mm 4 mps 760 mmHg 32%
04:00 +13°C° 0 mm 4 mps 760 mmHg 32%
05:00 +13°C° 0 mm 4 mps 760 mmHg 32%
06:00 +13°C° 0 mm 4 mps 760 mmHg 31%
07:00 +13°C° 0 mm 4 mps 760 mmHg 30%
08:00 +14°C° 0 mm 4 mps 760 mmHg 29%
09:00 +17°C° 0 mm 4 mps 761 mmHg 25%
10:00 +20°C° 0 mm 5 mps 761 mmHg 21%
11:00 +23°C° 0 mm 6 mps 761 mmHg 17%
12:00 +25°C° 0 mm 5 mps 760 mmHg 15%
13:00 +27°C° 0 mm 4 mps 760 mmHg 13%
14:00 +28°C° 0 mm 3 mps 759 mmHg 12%
15:00 +28°C° 0 mm 2 mps 759 mmHg 11%
16:00 +28°C° 0 mm 2 mps 758 mmHg 11%
17:00 +28°C° 0 mm 2 mps 758 mmHg 11%
18:00 +26°C° 0 mm 3 mps 758 mmHg 12%
19:00 +23°C° 0 mm 4 mps 758 mmHg 14%
20:00 +21°C° 0 mm 4 mps 758 mmHg 16%
21:00 +21°C° 0 mm 4 mps 759 mmHg 17%
22:00 +20°C° 0 mm 4 mps 759 mmHg 18%
23:00 +19°C° 0 mm 4 mps 759 mmHg 19%

7 March, Sunday

Time Temperature Precipitation Wind Pressure Humidity
00:00 +18°C° 0 mm 4 mps 759 mmHg 19%
01:00 +18°C° 0 mm 4 mps 759 mmHg 20%
02:00 +17°C° 0 mm 4 mps 758 mmHg 20%
03:00 +17°C° 0 mm 3 mps 758 mmHg 21%
04:00 +16°C° 0 mm 3 mps 758 mmHg 21%
05:00 +16°C° 0 mm 3 mps 758 mmHg 21%
06:00 +16°C° 0 mm 3 mps 758 mmHg 21%
07:00 +17°C° 0 mm 3 mps 759 mmHg 20%
08:00 +17°C° 0 mm 3 mps 759 mmHg 19%
09:00 +19°C° 0 mm 3 mps 759 mmHg 16%
10:00 +22°C° 0 mm 3 mps 759 mmHg 14%
11:00 +25°C° 0 mm 3 mps 759 mmHg 11%
12:00 +27°C° 0 mm 3 mps 758 mmHg 10%
13:00 +29°C° 0 mm 2 mps 758 mmHg 9%
14:00 +30°C° 0 mm 2 mps 757 mmHg 8%
15:00 +30°C° 0 mm 2 mps 757 mmHg 7%
16:00 +30°C° 0 mm 2 mps 756 mmHg 7%
17:00 +31°C° 0 mm 2 mps 756 mmHg 7%
18:00 +28°C° 0 mm 2 mps 756 mmHg 9%
19:00 +25°C° 0 mm 2 mps 756 mmHg 10%
20:00 +23°C° 0 mm 2 mps 756 mmHg 12%
21:00 +21°C° 0 mm 2 mps 756 mmHg 13%
22:00 +20°C° 0 mm 2 mps 757 mmHg 14%
23:00 +19°C° 0 mm 2 mps 757 mmHg 15%
Show more

We Need Your Consent

Meteoprog and our Service Providers may store and access personal data such as cookies, device identifiers or other similar technologies on your device and process such data to personalise content and ads, as well as provide social media features and to analyse the traffic.

  • Store and/or access information on your device

    Cookies, device identifiers or other information can be stored or accessed on your device for the purposes indicated above.

  • Personalised ads and content, ad and content measurement, audience insights, and products development

    Ads and content can be personalised based on a profile. More data can be added to better personalise ads and content. Ad and content performance can be measured. Insights about the audience who saw the ads and content can be derived. Such data can be used to develop or improve user’s experience, systems and software.

By clicking ‘I Agree’ you will allow the use of indicated cookies, device identifiers, web beacons or other similar technologies. Your settings can be changed in the browser on your device.

For certain purposes, legitimate interests may be relied on, rather than consent. You can read more about this in our Privacy and Cookie Policy.